Miscellaneous Local Product
Issued by NWS North Platte, NE

Home | Current Version | Previous Version | Text Only | Print | Product List | Glossary On
Versions: 1 2 3 4 5 6 7 8 9 10 11 12 13 14 15 16 17 18 19 20 21 22 23 24 25 26 27 28 29 30 31 32 33 34 35 36 37 38 39 40 41 42 43 44 45 46 47 48 49 50
000
AXUS43 KLBF 300610
MISLBF


WESTERN AND NORTH CENTRAL NEBRASKA HOURLY WEATHER ROUNDUP
NATIONAL WEATHER SERVICE NORTH PLATTE NE
100 AM CDT WED JUL 30 2014

***STATIONS NOT REPORTING VARIABLES SUCH AS SKY/WEATHER OR
PRESSURE ARE PROVIDED BY THE NEBRASKA DEPARTMENT OF
ROADS...RAWS...AND APRS NETWORKS...AND ARE NOT UNDER
NATIONAL WEATHER SERVICE QUALITY CONTROL***

...OBSERVATIONS IN AND NEAR THE EASTERN PANHANDLE OF NEBRASKA...

CITY           SKY/WX    TMP DP  RH WIND       PRES   REMARKS
PINE RIDGE     CLOUDY    53  51  93 CALM      30.24R
CHADRON        CLOUDY    58  54  86 W5        30.24R
ALLIANCE       CLOUDY    65  53  65 E7        30.25S
SIDNEY         LGT RAIN  63  61  93 CALM      30.27S
WHITECLAY        N/A     54  50  86 CALM        N/A
RUSHVILLE        N/A     56  53  91 SW5         N/A
GORDON           N/A     59  56  89 S3          N/A
CRESCENT LAKE    N/A     63  56  77 E6          N/A
LISCO            N/A     70  64  83 CALM        N/A
BIG SPRINGS      N/A     66  63  90 SE5         N/A
$$

...OBSERVATIONS IN NORTH CENTRAL NEBRASKA...

CITY           SKY/WX    TMP DP  RH WIND       PRES   REMARKS
VALENTINE      PTCLDY    54  50  86 W3        30.20S
THEDFORD       CLOUDY    64  56  76 CALM      30.21F
AINSWORTH      PTCLDY    58  53  80 W3        30.19F
O`NEILL        PTCLDY    61  55  78 SE3       30.18S
ORD            MOCLDY    61  59  93 CALM      30.17S
BROKEN BOW     CLOUDY    67  59  75 SE3       30.18F
BROWNLEE         N/A     66  52  59 CALM        N/A
SPRINGVIEW       N/A     54  50  86 CALM        N/A
DUNNING          N/A     65  62  90 CALM        N/A
ROSE             N/A     68  61  77 CALM        N/A
NEWPORT          N/A     59  56  92 CALM        N/A
SARGENT          N/A     63  59  86 CALM        N/A
COMSTOCK         N/A     71  62  73 S7          N/A
CHAMBERS         N/A     59  55  88 CALM        N/A
$$

...OBSERVATIONS IN SOUTHWEST NEBRASKA AND FAR NORTHEAST COLORADO...

CITY           SKY/WX    TMP DP  RH WIND       PRES   REMARKS
WRAY             N/A    N/A N/A N/A N8        30.21R
HOLYOKE        RAIN      63  61  94 E8        30.23S
IMPERIAL       LGT RAIN  64  61  90 NE15      30.22R
OGALLALA       DRIZZLE   65  61  87 E6        30.21S
NORTH PLATTE   CLOUDY    65  60  84 E5        30.20R
MCCOOK         CLOUDY    69  59  70 NE12      30.18R THUNDER
LEXINGTON      CLOUDY    69  60  75 SE8       30.18S
PAXTON           N/A     67  62  85 CALM        N/A
SUTHERLAND       N/A     66  62  89 CALM        N/A
BRADY            N/A     65  59  82 CALM        N/A
CALLAWAY         N/A     65  62  91 E5          N/A
$$

...SOME WEATHER OBSERVATIONS FROM AROUND THE REGION...

CITY           SKY/WX    TMP DP  RH WIND       PRES   REMARKS
DENVER         LGT RAIN  58  56  93 E13       30.26F FOG
LARAMIE        LGT RAIN  54  51  90 E6        30.37S
CHEYENNE       LGT RAIN  57  56  96 NE8       30.33S
SCOTTSBLUFF    CLOUDY    65  63  93 NW3       30.26S
RAPID CITY     PTCLDY    59  51  75 W7        30.21S
PIERRE         PTCLDY    61  53  75 E5        30.14S
WINNER         FAIR      63  50  62 S6        30.17S
SIOUX FALLS    CLEAR     58  53  84 CALM      30.14S
OMAHA          PTCLDY    60  55  83 NW3       30.14R
GRAND ISLAND   CLOUDY    65  61  87 NE5       30.17S
KANSAS CITY    PTCLDY    68  59  73 NE5       30.11F
WICHITA        MOCLDY    72  61  68 E10       30.09S
HAYS           CLOUDY    72  55  56 E10       30.12S
LIBERAL        CLOUDY    66  61  82 SE6       30.11F
GOODLAND       LGT RAIN  64  63  96 NW9       30.19S
$$



USA.gov is the U.S. government's official web portal to all federal, state and local government web resources and services.